This is the latest recevied weather packets stored in our database for station/object HB9KBJ-8. If no packets are shown the sender has not sent any weather packets the latest 10 day(s).
| Time | Temp. | Humidity | Pressure | Rain* | Wind** | Luminosity | Snow |
|---|---|---|---|---|---|---|---|
| 1778009545 | 12.22° C | 86% | 1009.5 hPa | 0 mm | - | 0 W/m² | - |
| 1778009243 | 12.22° C | 86% | 1009.5 hPa | 0 mm | - | 0 W/m² | - |
| 1778008944 | 12.22° C | 85% | 1009.5 hPa | 0 mm | - | 0 W/m² | - |
| 1778008644 | 12.22° C | 85% | 1009.3 hPa | 0 mm | - | 0 W/m² | - |
| 1778008343 | 12.78° C | 85% | 1009.2 hPa | 0 mm | - | 0 W/m² | - |
| 1778008045 | 12.78° C | 84% | 1009.2 hPa | 0 mm | - | 0 W/m² | - |
| 1778007742 | 12.78° C | 84% | 1009 hPa | 0 mm | - | 0 W/m² | - |
| 1778007455 | 13.33° C | 83% | 1008.9 hPa | 0 mm | - | 0 W/m² | - |
| 1778007149 | 13.33° C | 83% | 1008.9 hPa | 0 mm | - | 0 W/m² | - |
| 1778006835 | 13.33° C | 82% | 1008.9 hPa | 0 mm | - | 0 W/m² | - |
| 1778006553 | 13.89° C | 81% | 1008.9 hPa | 0 mm | - | 7 W/m² | - |
| 1778006247 | 14.44° C | 80% | 1008.9 hPa | 0 mm | - | 9 W/m² | - |
| 1778005950 | 14.44° C | 79% | 1008.9 hPa | 0 mm | - | 11 W/m² | - |
| 1778005642 | 14.44° C | 78% | 1008.9 hPa | 0 mm | - | 12 W/m² | - |
| 1778005345 | 15° C | 77% | 1008.9 hPa | 0 mm | - | 16 W/m² | - |
| 1778005046 | 15° C | 77% | 1008.9 hPa | 0 mm | - | 26 W/m² | - |
| 1778004743 | 15° C | 77% | 1008.9 hPa | 0 mm | - | 33 W/m² | - |
| 1778004437 | 15° C | 76% | 1009 hPa | 0 mm | - | 56 W/m² | - |
| 1778004148 | 15.56° C | 76% | 1009 hPa | 0 mm | - | 74 W/m² | - |
| 1778003842 | 15.56° C | 78% | 1008.9 hPa | 0 mm | - | 121 W/m² | - |
| 1778003553 | 15° C | 78% | 1008.9 hPa | 0 mm | - | 135 W/m² | - |
| 1778003250 | 15° C | 79% | 1008.9 hPa | 0 mm | - | 153 W/m² | - |
| 1778002944 | 15° C | 80% | 1009 hPa | 0 mm | - | 156 W/m² | - |
| 1778002642 | 14.44° C | 80% | 1009 hPa | 0 mm | - | 142 W/m² | - |
| 1778002336 | 14.44° C | 80% | 1009 hPa | 0 mm | - | 88 W/m² | - |
* Rain latest hour (hover to see other rain measurements)
** Current wind speed in m/s (hover to see current wind gust speed)